Location: Arboucave
(43.6130°N, 0.4343°W)
Time: 05:10:07
(UTC+00:00)

Cosmos 1954 Rocket - Pass Details

Date: 17 November 2025
Orbit: 748 x 776 km, 74.0° (Epoch: 04 December)

Event Time Altitude Azimuth Distance (km) Brightness Sun altitude
Rises 18:43:29 0° 208° (SSW) 3,238 7.7 -23.2°
Reaches altitude 10° 18:45:53 10° 212° (SSW) 2,312 6.9 -23.6°
Maximum altitude 18:51:05 62° 293° (WNW) 869 4.4 -24.6°
Enters shadow 18:54:16 24° 7° (N) 1,575 5.5 -25.2°
